Location: Helsinki
(60.1699°N, 24.9384°E)
Time: 22:58:07
(UTC+02:00)

A-11 Canister half - Pass Details

Date: 01 November 2020
Orbit: 1516 x 1684 km, 47.2° (Epoch: 26 November)

Event Time Altitude Azimuth Distance (km) Brightness Sun altitude
Rises 01:39:24 0° 277° (W) 4,895 - -41.1°
Reaches altitude 10° 01:43:28 10° 263° (W) 3,881 - -40.8°
Maximum altitude 01:50:24 22° 218° (SW) 2,974 - -40.4°
Drops below altitude 10° 01:57:10 10° 172° (S) 3,777 - -39.9°
Sets 02:01:04 0° 159° (SSE) 4,731 - -39.6°
